TimeMST,TemperatureF,Dew PointF,Humidity,Sea Level PressureIn,VisibilityMPH,Wind Direction,Wind SpeedMPH,Gust SpeedMPH,PrecipitationIn,Events,Conditions,WindDirDegrees,DateUTC
12:53 AM,27.0,10.9,51,30.12,10.0,Calm,Calm,-,N/A,,Clear,0,2013-01-07 07:53:00
1:53 AM,23.0,12.9,65,30.10,10.0,North,8.1,-,N/A,,Scattered Clouds,10,2013-01-07 08:53:00
2:53 AM,24.1,12.0,60,30.06,10.0,North,5.8,-,N/A,,Overcast,10,2013-01-07 09:53:00
3:53 AM,24.1,12.0,60,30.07,10.0,North,5.8,-,N/A,,Scattered Clouds,10,2013-01-07 10:53:00
4:53 AM,21.9,12.0,66,30.09,10.0,NNE,8.1,-,N/A,,Overcast,20,2013-01-07 11:53:00
5:53 AM,21.9,10.9,63,30.10,10.0,North,9.2,-,N/A,,Partly Cloudy,10,2013-01-07 12:53:00
6:53 AM,23.0,10.0,58,30.15,10.0,NNE,11.5,-,N/A,,Clear,20,2013-01-07 13:53:00
7:53 AM,21.0,10.0,63,30.17,10.0,North,15.0,-,N/A,,Partly Cloudy,360,2013-01-07 14:53:00
8:53 AM,21.0,8.1,57,30.13,10.0,North,16.1,-,N/A,,Scattered Clouds,10,2013-01-07 15:53:00
9:53 AM,24.1,9.0,53,30.12,10.0,North,17.3,-,N/A,,Clear,360,2013-01-07 16:53:00
10:53 AM,28.9,9.0,43,30.08,10.0,North,17.3,23.0,N/A,,Clear,10,2013-01-07 17:53:00
12:53 PM,35.1,12.0,39,29.97,10.0,North,10.4,-,N/A,,Clear,10,2013-01-07 19:53:00
1:53 PM,37.0,12.0,36,29.97,10.0,North,10.4,-,N/A,,Clear,360,2013-01-07 20:53:00
2:53 PM,39.0,12.0,33,29.94,10.0,North,9.2,-,N/A,,Clear,360,2013-01-07 21:53:00
3:53 PM,36.0,14.0,41,29.96,10.0,North,9.2,-,N/A,,Clear,360,2013-01-07 22:53:00
4:53 PM,34.0,12.9,42,29.99,10.0,North,8.1,-,N/A,,Clear,360,2013-01-07 23:53:00
5:53 PM,26.1,12.0,55,30.04,10.0,North,9.2,-,N/A,,Clear,360,2013-01-08 00:53:00
6:53 PM,26.1,10.9,53,30.03,10.0,NNE,9.2,-,N/A,,Clear,20,2013-01-08 01:53:00
7:53 PM,25.0,10.0,53,30.04,10.0,NNE,11.5,-,N/A,,Clear,20,2013-01-08 02:53:00
8:53 PM,23.0,10.0,58,30.04,10.0,North,11.5,-,N/A,,Clear,360,2013-01-08 03:53:00
9:53 PM,24.1,10.0,55,30.02,10.0,North,13.8,-,N/A,,Clear,360,2013-01-08 04:53:00
10:53 PM,21.9,9.0,58,29.98,10.0,North,12.7,-,N/A,,Clear,360,2013-01-08 05:53:00
11:53 PM,19.0,8.1,62,30.00,10.0,North,12.7,-,N/A,,Clear,10,2013-01-08 06:53:00